Location: BGSU Observatory
(41.3799°N, 83.6397°W)
Time: 02:41:17
(UTC-05:00)

Amateur Radio Satellites - All Passes

Search period start: 28 February 2017 02:11
Search period end: 01 March 2017 02:11
Location: BGSU Observatory, 41.3799°N, 83.6397°W

Satellite Date Start Highest point End Downlink Frequencies (MHz)
Time Altitude Azimuth
Oscar 19 28 Feb 02:13:51 02:19:00 89° 107° (ESE) 02:24:08 437.125/150
AO-7 28 Feb 02:41:23 02:46:23 17° 90° (E) 02:51:20 .
ITAMSAT 1 28 Feb 02:54:48 02:58:46 21° 93° (E) 03:02:41 435.822/435.867
MOZHAYETS 4 28 Feb 03:16:41 03:21:19 85° 79° (E) 03:26:00
ITUPSAT 1 28 Feb 03:18:04 03:22:27 35° 263° (W) 03:26:51 437.325
Gurwin Techsat 1B 28 Feb 03:22:39 03:27:36 40° 291° (WNW) 03:32:32 435.225
BEESAT 28 Feb 03:22:51 03:27:03 30° 263° (W) 03:31:18 436.000
KKS-1 28 Feb 03:26:51 03:30:38 28° 68° (ENE) 03:34:25 437.445
STARS 28 Feb 03:52:46 03:56:16 24° 67° (ENE) 03:59:48 437.465
Oscar 19 28 Feb 03:55:35 03:57:33 12° 302° (WNW) 03:59:32 437.125/150
RS-15 28 Feb 04:04:23 04:15:10 39° 254° (WSW) 04:25:34 29.354- 29.394
AO-85 28 Feb 04:11:15 04:15:50 87° 301° (WNW) 04:20:05 145.980
CUBESAT XI-V 28 Feb 04:24:09 04:28:46 69° 75° (ENE) 04:33:24 437.345
AO-7 28 Feb 04:31:51 04:40:13 87° 108° (ESE) 04:48:31 .
ITAMSAT 1 28 Feb 04:33:25 04:38:26 47° 290° (WNW) 04:43:26 435.822/435.867
M-CUBED/EXP-1 PRIME 28 Feb 04:54:33 04:57:49 80° 71° (ENE) 05:01:06 437.505
KKS-1 28 Feb 05:03:24 05:07:07 27° 264° (W) 05:10:53 437.445
BEESAT 3 28 Feb 05:10:21 05:13:27 23° 113° (ESE) 05:16:34 437.485
SO-50 28 Feb 05:20:35 05:23:34 17° 40° (NE) 05:26:33 436.795
STARS 28 Feb 05:28:35 05:32:28 31° 263° (W) 05:36:23 437.465
AO-85 28 Feb 05:54:52 05:56:48 13° 320° (NW) 05:58:39 145.980
BEESAT 2 28 Feb 05:55:06 05:58:30 28° 114° (ESE) 06:01:58 435.950
LilacSat-2 28 Feb 05:55:14 05:57:57 18° 93° (E) 06:00:37 437.200
CUTE-I 28 Feb 06:03:51 06:08:12 25° 94° (E) 06:12:32 437.470
STRAND 1 28 Feb 06:04:04 06:08:04 23° 64° (ENE) 06:12:06 437.568
CUBESAT XI-V 28 Feb 06:04:55 06:06:36 12° 271° (W) 06:08:17 437.345
AO-7 28 Feb 06:25:57 06:32:00 23° 308° (NW) 06:38:00 .
DOVE 4 28 Feb 06:32:50 06:37:36 61° 100° (E) 06:42:38 437.250
KAITUO 1B 28 Feb 06:37:48 06:41:27 46° 99° (E) 06:45:03 145.475/437.950
BEESAT 3 28 Feb 06:47:22 06:50:53 31° 310° (NW) 06:54:28 437.485
XW-2F 28 Feb 06:47:43 06:51:33 77° 102° (ESE) 06:55:19 145.980 - 146.000
XW-2D 28 Feb 06:54:19 06:58:10 82° 281° (W) 07:01:56 145.860 - 145.880
ISS 28 Feb 06:56:31 06:59:35 38° 138° (SE) 07:02:42 437.550
XW-2B 28 Feb 06:59:28 07:03:18 73° 284° (WNW) 07:07:04 145.730 - 145.750
SO-50 28 Feb 07:00:02 07:04:31 70° 239° (WSW) 07:08:57 436.795
XW-2C 28 Feb 07:08:19 07:12:05 55° 285° (WNW) 07:15:46 145.795 - 145.815
NUDT-PHONESAT 28 Feb 07:08:49 07:12:34 67° 285° (WNW) 07:16:15 437.300
Tancredo 1 28 Feb 07:14:04 07:17:16 62° 141° (SE) 07:20:29 437.200
CUTE 1.7 + AOD 2 28 Feb 07:27:12 07:30:36 23° 94° (E) 07:33:59 437.475
LilacSat-2 28 Feb 07:28:53 07:32:17 30° 289° (WNW) 07:35:38 437.200
XW-2A 28 Feb 07:32:00 07:35:15 36° 98° (E) 07:38:27 145.665 - 145.685
BEESAT 2 28 Feb 07:32:51 07:36:14 27° 312° (NW) 07:39:41 435.950
HO-68 28 Feb 07:36:44 07:43:20 38° 98° (E) 07:49:52 435.675
O/OREOS (USA 219) 28 Feb 07:37:01 07:41:01 29° 59° (ENE) 07:45:02 437.305
STRAND 1 28 Feb 07:42:04 07:46:57 44° 261° (W) 07:51:53 437.568
CUTE-I 28 Feb 07:43:19 07:48:23 43° 291° (WNW) 07:53:26 437.470
AAUSAT CUBESAT 2 28 Feb 07:58:41 08:01:21 17° 92° (E) 08:04:01 437.432
FO-29 28 Feb 08:10:45 08:11:51 10° 47° (NE) 08:12:58 435.910
DOVE 4 28 Feb 08:11:56 08:14:52 16° 296° (WNW) 08:17:52 437.250
KAITUO 1B 28 Feb 08:13:26 08:15:03 12° 295° (WNW) 08:16:40 145.475/437.950
AO-73 28 Feb 08:14:50 08:16:36 12° 89° (E) 08:18:21 145.935
SEEDS 28 Feb 08:17:51 08:21:58 58° 100° (E) 08:26:04 437.485
CUBEBUG 2 28 Feb 08:17:57 08:22:28 41° 97° (E) 08:26:53 437.445
Oscar 11 28 Feb 08:18:18 08:19:03 10° 89° (E) 08:19:48 .
ISS 28 Feb 08:33:08 08:36:06 30° 335° (NNW) 08:39:05 437.550
TIGRISAT 28 Feb 08:34:08 08:36:11 13° 61° (ENE) 08:38:14 435.000
UNISAT 6 28 Feb 08:34:30 08:36:51 14° 62° (ENE) 08:39:14 437.425
UWE-3 28 Feb 08:48:30 08:53:05 54° 99° (E) 08:57:33 435.000/436.395/437.385
Tancredo 1 28 Feb 08:51:05 08:53:46 23° 339° (NNW) 08:56:27 437.200
PRISM 28 Feb 08:58:54 09:02:53 55° 74° (ENE) 09:06:52 437.425
ZACube-1 28 Feb 09:02:18 09:06:40 44° 98° (E) 09:10:54 437.345
CUTE 1.7 + AOD 2 28 Feb 09:02:47 09:06:24 28° 291° (WNW) 09:10:01 437.475
XW-2A 28 Feb 09:06:02 09:07:40 13° 294° (WNW) 09:09:18 145.665 - 145.685
O/OREOS (USA 219) 28 Feb 09:16:26 09:20:21 28° 257° (WSW) 09:24:16 437.305
HO-68 28 Feb 09:24:26 09:31:02 42° 295° (WNW) 09:37:37 435.675
AAUSAT CUBESAT 2 28 Feb 09:33:08 09:36:58 38° 288° (WNW) 09:40:46 437.432
FO-29 28 Feb 09:47:59 09:54:55 49° 67° (ENE) 10:02:22 435.910
AO-73 28 Feb 09:48:46 09:53:16 63° 286° (WNW) 09:57:38 145.935
Oscar 11 28 Feb 09:51:20 09:55:38 68° 285° (WNW) 09:59:54 .
CUBEBUG 2 28 Feb 09:55:10 09:58:47 22° 294° (WNW) 10:02:20 437.445
SEEDS 28 Feb 09:55:21 09:57:10 13° 297° (WNW) 09:58:58 437.485
TIGRISAT 28 Feb 10:07:43 10:12:13 71° 258° (WSW) 10:16:51 435.000
UNISAT 6 28 Feb 10:08:29 10:12:59 64° 260° (W) 10:17:36 437.425
YUBILEINY 28 Feb 10:10:13 10:18:46 57° 91° (E) 10:27:17 435.215
ISS 28 Feb 10:11:28 10:13:21 14° 355° (N) 10:15:15 437.550
DUCHIFAT 1 28 Feb 10:15:47 10:17:01 11° 62° (ENE) 10:18:16 145.980
AIST 2D 28 Feb 10:18:54 10:21:26 19° 69° (ENE) 10:24:00 435.315
UWE-3 28 Feb 10:26:09 10:29:04 17° 296° (WNW) 10:31:56 435.000/436.395/437.385
EO-79 28 Feb 10:28:36 10:31:32 19° 66° (ENE) 10:34:30 145.935-145.965
Tancredo 1 28 Feb 10:29:11 10:30:54 13° 359° (N) 10:32:37 437.200
DELFI C3 28 Feb 10:36:19 10:40:12 62° 286° (WNW) 10:44:05 145.870
PRISM 28 Feb 10:37:07 10:38:30 11° 269° (W) 10:39:54 437.425
ZACube-1 28 Feb 10:39:26 10:42:35 19° 295° (WNW) 10:45:41 437.345
NANOSAT C BR1 28 Feb 10:42:54 10:46:18 24° 68° (ENE) 10:49:43 145.865
POLYITAN 1 28 Feb 10:46:20 10:50:00 28° 69° (ENE) 10:53:40 437.675
ESTCUBE 1 28 Feb 10:47:24 10:47:57 10° 89° (E) 10:48:29 437.505/2401.250
QB50P2 28 Feb 10:49:18 10:53:05 33° 70° (ENE) 10:56:55 145.880/145.840
BUGSAT 1 28 Feb 10:59:15 11:00:29 11° 62° (ENE) 11:01:43 437.445
FO-29 28 Feb 11:33:29 11:40:02 36° 266° (W) 11:47:06 435.910
DUCHIFAT 1 28 Feb 11:47:54 11:52:05 70° 258° (WSW) 11:56:19 145.980
ISS 28 Feb 11:48:23 11:50:47 18° 15° (NNE) 11:53:11 437.550
AIST 2D 28 Feb 11:51:29 11:54:30 26° 264° (W) 11:57:32 435.315
LO-87 28 Feb 11:52:41 11:56:15 59° 284° (WNW) 11:59:48 145.935 - 145.965
Oscar 19 28 Feb 11:53:49 11:57:04 17° 62° (ENE) 12:00:18 437.125/150
EO-79 28 Feb 12:03:03 12:07:00 39° 262° (W) 12:11:01 145.935-145.965
Tancredo 1 28 Feb 12:05:29 12:08:04 21° 19° (NNE) 12:10:38 437.200
50 SAT 28 Feb 12:08:06 12:10:01 14° 93° (E) 12:11:56 437.505
YUBILEINY 28 Feb 12:08:20 12:15:58 32° 291° (WNW) 12:23:39 435.215
DX 1 28 Feb 12:13:36 12:15:25 12° 91° (E) 12:17:14 434.975-435.025
SPROUT 28 Feb 12:14:19 12:17:53 25° 95° (E) 12:21:25 437.525
NANOSAT C BR1 28 Feb 12:18:12 12:21:53 29° 264° (W) 12:25:36 145.865
ESTCUBE 1 28 Feb 12:20:46 12:25:15 73° 284° (WNW) 12:29:41 437.505/2401.250
POLYITAN 1 28 Feb 12:22:16 12:25:44 24° 265° (W) 12:29:15 437.675
QB50P2 28 Feb 12:25:41 12:28:56 21° 266° (W) 12:32:12 145.880/145.840
BUGSAT 1 28 Feb 12:31:13 12:35:15 66° 258° (WSW) 12:39:22 437.445
VELOX 1 28 Feb 12:31:21 12:35:37 46° 99° (E) 12:39:52 145.980
AO-85 28 Feb 12:42:30 12:46:25 76° 57° (ENE) 12:50:24 145.980
Gurwin Techsat 1B 28 Feb 13:04:04 13:09:02 42° 69° (ENE) 13:14:01 435.225
ISS 28 Feb 13:24:24 13:27:42 71° 34° (NE) 13:30:58 437.550
BEESAT 3 28 Feb 13:26:54 13:29:39 17° 44° (NE) 13:32:23 437.485
Oscar 19 28 Feb 13:30:45 13:35:51 63° 258° (WSW) 13:40:58 437.125/150
50 SAT 28 Feb 13:40:07 13:43:14 31° 289° (WNW) 13:46:19 437.505
AO-7 28 Feb 13:40:10 13:46:52 28° 55° (NE) 13:53:33 .
Tancredo 1 28 Feb 13:41:24 13:44:37 75° 219° (SW) 13:47:50 437.200
DX 1 28 Feb 13:47:40 13:51:58 59° 287° (WNW) 13:56:15 434.975-435.025
SPROUT 28 Feb 13:50:03 13:53:45 29° 291° (WNW) 13:57:27 437.525
UKube-1 28 Feb 13:52:43 13:57:02 73° 285° (WNW) 14:01:19 .
VELOX 1 28 Feb 14:08:48 14:11:42 17° 296° (WNW) 14:14:36 145.980
ITAMSAT 1 28 Feb 14:12:33 14:17:11 34° 67° (ENE) 14:21:51 435.822/435.867
BEESAT 2 28 Feb 14:12:37 14:15:45 21° 46° (NE) 14:18:52 435.950
PCSat 28 Feb 14:26:18 14:28:23 12° 102° (ESE) 14:30:28 145.827
Gurwin Techsat 1B 28 Feb 14:44:48 14:49:07 25° 266° (W) 14:53:26 435.225
ISS 28 Feb 15:02:10 15:03:46 13° 230° (SW) 15:05:21 437.550
BEESAT 3 28 Feb 15:03:38 15:07:34 52° 242° (WSW) 15:11:26 437.485
MOZHAYETS 4 28 Feb 15:12:31 15:15:51 20° 93° (E) 15:19:10
ITUPSAT 1 28 Feb 15:17:52 15:22:37 59° 101° (E) 15:27:19 437.325
BEESAT 28 Feb 15:22:02 15:26:48 66° 101° (ESE) 15:31:32 436.000
NO-84 28 Feb 15:23:39 15:25:45 17° 125° (SE) 15:27:56 435.350 FM
AO-7 28 Feb 15:30:34 15:38:55 72° 254° (WSW) 15:47:18 .
BEESAT 2 28 Feb 15:49:52 15:53:41 41° 243° (WSW) 15:57:29 435.950
ITAMSAT 1 28 Feb 15:52:04 15:56:37 30° 264° (W) 16:01:13 435.822/435.867
PCSat 28 Feb 16:05:33 16:10:57 87° 294° (WNW) 16:16:26 145.827
RS-15 28 Feb 16:14:26 16:25:03 40° 106° (ESE) 16:36:00 29.354- 29.394
CUBESAT XI-V 28 Feb 16:21:43 16:24:40 17° 92° (E) 16:27:36 437.345
LilacSat-2 28 Feb 16:39:20 16:40:01 10° 63° (ENE) 16:40:42 437.200
MOZHAYETS 4 28 Feb 16:48:51 16:53:10 40° 289° (WNW) 16:57:26
KKS-1 28 Feb 16:53:13 16:57:38 55° 101° (E) 17:02:01 437.445
ITUPSAT 1 28 Feb 16:57:01 16:59:57 16° 298° (WNW) 17:02:52 437.325
NO-84 28 Feb 17:00:00 17:03:03 42° 325° (NW) 17:06:22 435.350 FM
BEESAT 28 Feb 17:01:26 17:04:01 15° 299° (WNW) 17:06:35 436.000
STARS 28 Feb 17:17:09 17:21:25 44° 100° (E) 17:25:39 437.465
KAITUO 1B 28 Feb 17:18:14 17:21:15 23° 69° (ENE) 17:24:16 145.475/437.950
CUTE-I 28 Feb 17:25:29 17:30:26 40° 69° (ENE) 17:35:25 437.470
XW-2F 28 Feb 17:28:33 17:32:04 35° 72° (ENE) 17:35:37 145.980 - 146.000
AO-7 28 Feb 17:29:36 17:33:00 13° 273° (W) 17:36:26 .
XW-2D 28 Feb 17:35:18 17:38:58 45° 73° (ENE) 17:42:41 145.860 - 145.880
DOVE 4 28 Feb 17:38:50 17:42:52 56° 74° (ENE) 17:47:01 437.250
XW-2B 28 Feb 17:40:22 17:44:06 51° 74° (ENE) 17:47:52 145.730 - 145.750
NUDT-PHONESAT 28 Feb 17:47:54 17:51:33 51° 74° (ENE) 17:55:15 437.300
XW-2C 28 Feb 17:49:05 17:52:54 67° 76° (ENE) 17:56:45 145.795 - 145.815
PCSat 28 Feb 17:51:50 17:55:10 16° 319° (NW) 17:58:31 145.827
CUBESAT XI-V 28 Feb 17:57:52 18:02:17 47° 287° (WNW) 18:06:41 437.345
XW-2A 28 Feb 18:04:49 18:06:34 13° 66° (ENE) 18:08:19 145.665 - 145.685
HO-68 28 Feb 18:05:55 18:11:55 30° 60° (ENE) 18:17:55 435.675
M-CUBED/EXP-1 PRIME 28 Feb 18:06:02 18:09:54 58° 106° (ESE) 18:14:04 437.505
LilacSat-2 28 Feb 18:09:54 18:13:45 63° 259° (W) 18:17:38 437.200
CUTE 1.7 + AOD 2 28 Feb 18:20:19 18:23:14 18° 66° (ENE) 18:26:09 437.475
RS-15 28 Feb 18:25:00 18:36:55 65° 309° (NW) 18:49:16 29.354- 29.394
KKS-1 28 Feb 18:31:08 18:33:44 15° 297° (WNW) 18:36:19 437.445
NO-84 28 Feb 18:39:58 18:41:33 13° 346° (NNW) 18:43:12 435.350 FM
AAUSAT CUBESAT 2 28 Feb 18:50:03 18:51:43 12° 63° (ENE) 18:53:23 437.432
KAITUO 1B 28 Feb 18:52:01 18:55:10 24° 265° (W) 18:58:20 145.475/437.950
STARS 28 Feb 18:54:23 18:57:25 18° 296° (WNW) 19:00:26 437.465
XW-2F 28 Feb 19:03:57 19:06:20 16° 268° (W) 19:08:45 145.980 - 146.000
CUTE-I 28 Feb 19:06:11 19:10:35 26° 266° (W) 19:15:01 437.470
SEEDS 28 Feb 19:09:17 19:13:13 39° 72° (ENE) 19:17:10 437.485
AO-73 28 Feb 19:11:25 19:12:27 11° 61° (ENE) 19:13:31 145.935
XW-2D 28 Feb 19:11:45 19:13:24 12° 269° (W) 19:15:05 145.860 - 145.880
CUBEBUG 2 28 Feb 19:15:53 19:19:54 33° 69° (ENE) 19:24:04 437.445
XW-2B 28 Feb 19:17:26 19:18:36 11° 270° (W) 19:19:46 145.730 - 145.750
DOVE 4 28 Feb 19:19:42 19:21:01 11° 271° (W) 19:22:20 437.250
NUDT-PHONESAT 28 Feb 19:24:57 19:25:47 11° 270° (W) 19:26:39 437.300
XW-2A 28 Feb 19:35:54 19:39:02 33° 262° (W) 19:42:11 145.665 - 145.685
M-CUBED/EXP-1 PRIME 28 Feb 19:42:11 19:44:01 13° 300° (WNW) 19:45:54 437.505
UWE-3 28 Feb 19:45:05 19:49:19 42° 72° (ENE) 19:53:42 435.000/436.395/437.385
STRAND 1 28 Feb 19:52:08 19:57:16 63° 101° (ESE) 20:02:20 437.568
HO-68 28 Feb 19:52:14 19:59:15 56° 259° (WSW) 20:06:18 435.675
CUTE 1.7 + AOD 2 28 Feb 19:54:43 19:58:46 40° 262° (W) 20:02:48 437.475
ZACube-1 28 Feb 19:57:46 20:01:50 35° 70° (ENE) 20:05:59 437.345
NO-84 28 Feb 20:19:38 20:20:39 11° 8° (N) 20:21:41 435.350 FM
YUBILEINY 28 Feb 20:20:47 20:28:01 28° 67° (ENE) 20:35:10 435.215
AAUSAT CUBESAT 2 28 Feb 20:22:34 20:26:40 60° 260° (W) 20:30:47 437.432
RS-15 28 Feb 20:42:30 20:52:31 28° 339° (NNW) 21:02:40 29.354- 29.394
AO-73 28 Feb 20:43:28 20:47:57 84° 256° (WSW) 20:52:33 145.935
Oscar 11 28 Feb 20:45:33 20:49:55 90° 273° (W) 20:54:18 .
SEEDS 28 Feb 20:46:15 20:49:04 17° 268° (W) 20:51:53 437.485
CUBEBUG 2 28 Feb 20:52:57 20:56:34 24° 267° (W) 21:00:17 437.445
SO-50 28 Feb 21:14:07 21:18:25 36° 116° (ESE) 21:22:41 436.795
DELFI C3 28 Feb 21:21:21 21:25:16 71° 76° (ENE) 21:29:12 145.870
UWE-3 28 Feb 21:22:48 21:25:58 19° 268° (W) 21:29:12 435.000/436.395/437.385
STRAND 1 28 Feb 21:32:37 21:35:54 17° 299° (WNW) 21:39:11 437.568
ZACube-1 28 Feb 21:34:37 21:38:10 23° 267° (W) 21:41:46 437.345
ESTCUBE 1 28 Feb 21:47:06 21:48:15 11° 61° (ENE) 21:49:25 437.505/2401.250
O/OREOS (USA 219) 28 Feb 21:49:27 21:53:23 31° 104° (ESE) 21:57:22 437.305
NO-84 28 Feb 21:56:12 21:59:27 24° 28° (NNE) 22:02:54 435.350 FM
TIGRISAT 28 Feb 21:59:39 22:03:31 25° 94° (E) 22:07:19 435.000
UNISAT 6 28 Feb 22:00:27 22:04:28 27° 95° (E) 22:08:24 437.425
PRISM 28 Feb 22:15:04 22:19:10 89° 269° (W) 22:23:15 437.425
YUBILEINY 28 Feb 22:16:51 22:25:27 65° 268° (W) 22:33:59 435.215
LO-87 28 Feb 22:28:38 22:32:04 50° 74° (ENE) 22:35:31 145.935 - 145.965
FO-29 28 Feb 22:43:06 22:50:09 42° 95° (E) 22:56:27 435.910
SO-50 28 Feb 22:54:53 22:58:56 29° 313° (NW) 23:02:57 436.795
RS-15 28 Feb 23:01:01 23:10:45 25° 15° (NNE) 23:20:20 29.354- 29.394
SPROUT 28 Feb 23:08:08 23:11:13 20° 66° (ENE) 23:14:19 437.525
DX 1 28 Feb 23:09:54 23:11:30 12° 61° (ENE) 23:13:06 434.975-435.025
PCSat 28 Feb 23:11:32 23:14:29 14° 39° (NE) 23:17:25 145.827
AIST 2D 28 Feb 23:16:35 23:19:22 21° 95° (E) 23:22:08 435.315
ESTCUBE 1 28 Feb 23:19:53 23:24:23 81° 256° (WSW) 23:28:55 437.505/2401.250
VELOX 1 28 Feb 23:28:30 23:32:35 40° 71° (ENE) 23:36:43 145.980
O/OREOS (USA 219) 28 Feb 23:29:02 23:32:47 26° 302° (WNW) 23:36:35 437.305
DUCHIFAT 1 28 Feb 23:32:41 23:35:39 18° 93° (E) 23:38:35 145.980
NO-84 28 Feb 23:33:23 23:37:26 66° 224° (SW) 23:41:43 435.350 FM
TIGRISAT 28 Feb 23:36:00 23:40:12 33° 291° (WNW) 23:44:20 435.000
UNISAT 6 28 Feb 23:37:01 23:41:07 30° 291° (WNW) 23:45:10 437.425
EO-79 28 Feb 23:47:28 23:51:20 31° 97° (E) 23:55:08 145.935-145.965
NANOSAT C BR1 01 Mar 00:01:46 00:05:50 42° 99° (E) 00:09:53 145.865
POLYITAN 1 01 Mar 00:06:00 00:10:14 51° 100° (E) 00:14:23 437.675
QB50P2 01 Mar 00:09:07 00:13:23 61° 101° (E) 00:17:37 145.880/145.840
50 SAT 01 Mar 00:13:26 00:16:55 88° 257° (WSW) 00:20:25 437.505
BUGSAT 1 01 Mar 00:13:39 00:16:34 18° 93° (E) 00:19:28 437.445
YUBILEINY 01 Mar 00:18:40 00:20:22 11° 288° (WNW) 00:22:04 435.215
FO-29 01 Mar 00:28:11 00:35:01 39° 296° (WNW) 00:41:16 435.910
DX 1 01 Mar 00:42:49 00:47:06 69° 258° (WSW) 00:51:26 434.975-435.025
SPROUT 01 Mar 00:42:57 00:46:53 36° 263° (W) 00:50:51 437.525
UKube-1 01 Mar 00:46:47 00:51:05 87° 256° (WSW) 00:55:25 .
AIST 2D 01 Mar 00:49:43 00:52:31 22° 290° (WNW) 00:55:16 435.315
PCSat 01 Mar 00:53:22 00:58:50 75° 60° (ENE) 01:04:14 145.827
VELOX 1 01 Mar 01:06:12 01:09:12 18° 267° (W) 01:12:13 145.980
DUCHIFAT 1 01 Mar 01:07:29 01:11:27 38° 289° (WNW) 01:15:23 145.980
RS-15 01 Mar 01:14:56 01:27:02 54° 46° (NE) 01:38:37 29.354- 29.394
Gurwin Techsat 1B 01 Mar 01:21:18 01:24:32 16° 91° (E) 01:27:44 435.225
EO-79 01 Mar 01:23:32 01:26:54 23° 293° (WNW) 01:30:16 145.935-145.965
NANOSAT C BR1 01 Mar 01:38:22 01:41:13 18° 295° (WNW) 01:44:04 145.865
Oscar 19 01 Mar 01:42:13 01:47:08 45° 99° (E) 01:52:01 437.125/150
POLYITAN 1 01 Mar 01:43:08 01:45:34 15° 296° (WNW) 01:48:00 437.675
QB50P2 01 Mar 01:46:41 01:48:39 13° 297° (WNW) 01:50:37 145.880/145.840
BUGSAT 1 01 Mar 01:48:06 01:52:03 39° 289° (WNW) 01:56:01 437.445
